Regional Weather Roundup
Issued by NWS

Home | Current Version | Previous Version | Text Only | Print | Product List | Glossary On
Versions: 1 2 3 4 5 6 7 8 9 10 11 12 13 14 15 16 17 18 19 20 21 22 23 24 25 26 27 28 29 30 31 32 33 34 35 36 37 38 39 40 41 42 43 44 45 46 47 48 49 50
000
ASUS43 KLOT 252208
RWRIL

ILLINOIS REGIONAL WEATHER ROUNDUP
NATIONAL WEATHER SERVICE CHICAGO/ROMEOVILLE IL
500 PM CDT SUN SEP 25 2016

NOTE: "FAIR" INDICATES FEW OR NO CLOUDS BELOW 12,000 FEET WITH NO
SIGNIFICANT WEATHER AND/OR OBSTRUCTIONS TO VISIBILITY.

* THESE STATIONS ARE NOT UNDER NWS QUALITY CONTROL. THEY ALSO MAY NOT
  REPORT WEATHER SUCH AS PRECIPITATION OR FOG.

ILZ001-002-007-009-015-016-024-252300-
NORTHWEST ILLINOIS

CITY           SKY/WX    TMP DP  RH WIND       PRES   REMARKS
MOLINE         CLOUDY    77  65  66 W13       29.93S
STERLING*      MOSUNNY   81  67  62 W16G26    29.90S HX  83
SAVANNA*       MOSUNNY   80  66  62 W12G18    29.90S HX  81
$$

ILZ003-004-008-010-011-017-018-252300-
NORTH CENTRAL ILLINOIS

CITY           SKY/WX    TMP DP  RH WIND       PRES   REMARKS
ROCKFORD       MOSUNNY   82  68  62 SW8       29.89F HX  85
FREEPORT*      MOSUNNY   79  66  65 W13G21    29.91S HX  81
ROCHELLE*      SUNNY     82  71  69 W12       29.89F HX  85
DE KALB*       CLOUDY    82  69  66 W12G18    29.90S HX  85
$$

ILZ005-006-012>014-019>023-252300-
NORTHEAST ILLINOIS

CITY           SKY/WX    TMP DP  RH WIND       PRES   REMARKS
CHICAGO-OHARE  PTSUNNY   84  67  56 S14       29.88F HX  86
CHICAGO-MIDWAY CLOUDY    85  67  54 S10       29.89F HX  87
AURORA         PTSUNNY   86  66  51 SW14      29.88F HX  88
LANSING*       MOSUNNY   81  70  69 S7        29.92F HX  84
JOLIET*        PTSUNNY   81  72  74 S6        29.90F HX  85
WAUKEGAN       PTSUNNY   74  65  73 SE14G20   29.86F
DUPAGE AIRPORT PTSUNNY   82  67  60 S17       29.87F HX  84
KANKAKEE*      PTSUNNY   77  73  87 CALM      29.93F
WHEELING       SUNNY     83  66  56 S16       29.88F HX  85
MORRIS*        CLOUDY    83  67  56 S7        29.89F HX  86
ROMEOVILLE*    MOSUNNY   80  71  74 S7        29.90F HX  84
NORTHERLY ISL    N/A     75  66  73 CALM        N/A
$$

LMZ740>746-252300-
SOUTHERN LAKE MICHIGAN

STATION/POSITION SKY/WX   TEMP    WIND        PRES    VSBY  WAVE
                          AIR SEA DIR/SP/G                  HT/PER
                          (F)     (DEG/KT/KT) (MB)    (MI)  (FT/S)
SOUTHERN BUOY              74 72  130/ 16/ 17 1012.0F         3/ 5
WILMETTE HARBOR            70 65  170/ 10/ 12   N/A           2/ 4
HARRISON CRIB              76     140/ 11/ 13   N/A
BURNHAM HARBOR             75      CALM  /  4   N/A
CALUMET HARBOR             84     220/  3/  9 1012.6F
BURNS HARBOR               85     170/  8/ 14 1013.9F
MICHIGAN CITY              83     110/  7/  9   N/A
MICHIGAN CITY 6N           76 71  150/  6/  8   N/A           1
ST. JOSEPH                 77 68  130/ 10/ 12 1013.3F         1
$$

ILZ025>027-034>036-040-047-049-050-058-095>099-252300-
WEST-CENTRAL ILLINOIS

CITY           SKY/WX    TMP DP  RH WIND       PRES   REMARKS
QUINCY         MOSUNNY   80  66  62 W13       29.99S HX  82
GALESBURG*     CLOUDY    78  65  62 W14       29.96R HX  80
MACOMB*        CLOUDY    80  65  61 W12       29.99S HX  82
JACKSONVILLE*  SUNNY     86  64  48 W12G18    29.95F HX  87
PITTSFIELD*    MOSUNNY   84  67  57 W12       29.99S HX  87
$$

ILZ028>032-037-038-041>044-048-051>054-059>061-252300-
CENTRAL ILLINOIS

CITY           SKY/WX    TMP DP  RH WIND       PRES   REMARKS
PONTIAC        CLOUDY    85  72  66 SW9       29.93F HX  90
BLOOMINGTON    CLOUDY    84  67  56 W14       29.95F HX  86
DECATUR        CLOUDY    86  66  51 W9        29.96F HX  88
PEORIA         MOSUNNY   86  66  51 W14G21    29.93F HX  88
LACON*         CLOUDY    85  65  50 W7        29.91S HX  87
LINCOLN*       MOSUNNY   88  68  51 W8        29.94F HX  91
SPRINGFIELD    CLOUDY    89  65  44 W10G20    29.95F HX  91
TAYLORVILLE    CLOUDY    89  65  45 W8        29.95F HX  90
$$

ILZ033-039-045-046-055>057-062-063-252300-
EAST-CENTRAL ILLINOIS

CITY           SKY/WX    TMP DP  RH WIND       PRES   REMARKS
CHAMPAIGN      PTSUNNY   82  66  58 S8        29.96F HX  84
RANTOUL*       LGT RAIN  81  71  71 S5        29.95F HX  84
MATTOON        MOSUNNY   85  66  53 SW12G18   29.97F HX  87
PARIS*         CLOUDY    86  68  55 S10       29.98S HX  89
$$

ILZ079-100>102-252300-
SOUTHWEST ILLINOIS

CITY           SKY/WX    TMP DP  RH WIND       PRES   REMARKS
ALTON          MOSUNNY   84  66  54 W7        29.98F HX  86
BELLEVILLE     MOSUNNY   89  69  50 SW8       29.96F HX  93
CAHOKIA*       CLOUDY    89  63  41 W6        29.96F HX  90
SPARTA*        CLOUDY    82  70  67 S3        30.00F HX  86
$$

ILZ064>066-069>071-074>076-080>082-084>086-088>090-092>094-252300-
SOUTH-CENTRAL ILLINOIS

CITY           SKY/WX    TMP DP  RH WIND       PRES   REMARKS
CARBONDALE     SUNNY     86  70  58 S6        29.99F HX  90
CAIRO*         SUNNY     91  68  47 S5        29.98S HX  94
EFFINGHAM*     CLOUDY    79  76  90 CALM      30.00F HX  83
MARION         MOSUNNY   90  68  48 SW7       30.00F HX  93
MT. VERNON     SUNNY     88  70  55 S8        29.99F HX  92
CENTRALIA*     PTSUNNY   87  71  58 SW9       29.98S HX  92
SALEM*         LGT RAIN  87  69  54 W6        29.98F HX  90
METROPOLIS*    SUNNY     91  66  44 CALM      29.99F HX  93
$$

ILZ067-068-072-073-078-083-087-091-252300-
SOUTHEAST ILLINOIS

CITY           SKY/WX    TMP DP  RH WIND       PRES   REMARKS
LAWRENCEVILLE  MOSUNNY   88  66  48 S7        29.99F HX  90
FLORA*         SUNNY     88  69  54 SW8       29.99S HX  92
FAIRFIELD*     SUNNY     88  67  50 S3        29.97F HX  91
HARRISBURG*    SUNNY     89  70  52 SW3       29.99F HX  94
ROBINSON*      SUNNY     85  68  55 S8        29.99F HX  89
CARMI*         SUNNY     90  68  49 SW5       29.98F HX  93
$$

ABBREVIATIONS USED IN REMARKS
   TC - TEMPERATURE IN CELSIUS
  WCI - WIND CHILL INDEX
   HX - HEAT INDEX
  VSB - VISIBILITY
$$





USA.gov is the U.S. government's official web portal to all federal, state and local government web resources and services.